Date String (YYYY-MM-DD hh:mm:ss) UTC,Instrument flags,Ambient pressure (hPa),Sample flow (lpm),Bypass flow (lpm),Sample temperature (°C),Ambient temperature (°C),ASC tube jacket temperature (°C),LED temperature (°C),Box temperature (°C),Sample RH (%),Span deviation,Mass concentration (μg/m³),Mass concentration (μg/m³),Mass concentration (μg/m³)
DateTimeUTC,F1_M11,P_M11,Q1_M11,Q2_M11,T1_M11,T2_M11,T3_M11,T4_M11,T5_M11,U1_M11,ZSPAN_M11,X2_M11,X0_M11,X1_M11
2022-09-24 05:00:00,,0829.2,4.99,0.00,30.5,26.8,00.0,39.2,32.1,10.4,0000.0,0002.37,0004.78,0001.62
2022-09-24 05:01:00,,0829.4,5.00,0.00,30.4,27.1,00.0,39.1,32.0,10.5,0000.0,0002.33,0004.34,0001.61
2022-09-24 05:02:00,,0829.2,5.00,0.00,30.3,27.4,00.0,39.1,31.9,10.6,0000.0,0002.32,0004.53,0001.59
2022-09-24 05:03:00,,0829.4,5.01,0.00,30.3,27.7,00.0,39.1,31.9,10.6,0000.0,0002.31,0004.46,0001.59
2022-09-24 05:04:00,,0829.3,4.99,0.00,30.2,27.9,00.0,39.1,31.9,10.6,0000.0,0002.29,0004.37,0001.60
2022-09-24 05:05:00,,0829.2,5.00,0.00,30.2,28.1,00.0,39.0,32.0,10.6,0000.0,0002.26,0004.28,0001.59
2022-09-24 05:06:00,,0829.3,5.01,0.00,30.2,28.3,00.0,39.0,32.0,10.6,0000.0,0002.23,0004.13,0001.60
2022-09-24 05:07:00,,0829.2,4.99,0.00,30.2,28.4,00.0,39.0,32.0,10.7,0000.0,0002.24,0003.97,0001.60
2022-09-24 05:08:00,,0829.3,5.01,0.00,30.2,28.5,00.0,39.0,32.0,10.9,0000.0,0002.25,0004.03,0001.61
2022-09-24 05:09:00,,0829.3,5.01,0.00,30.2,28.6,00.0,39.0,32.0,10.6,0000.0,0002.24,0003.99,0001.61
2022-09-24 05:10:00,,0829.2,5.00,0.00,30.2,28.6,00.0,39.0,32.0,10.6,0000.0,0002.24,0004.10,0001.61
2022-09-24 05:11:00,,0829.2,5.02,0.00,30.2,28.7,00.0,39.0,32.0,10.7,0000.0,0002.26,0004.97,0001.61
2022-09-24 05:12:00,,0829.3,5.00,0.00,30.2,28.7,00.0,39.0,32.0,10.6,0000.0,0002.26,0005.01,0001.62
2022-09-24 05:13:00,,0829.3,5.00,0.00,30.2,28.7,00.0,39.0,32.1,10.7,0000.0,0002.25,0004.60,0001.64
2022-09-24 05:14:00,,0829.3,5.00,0.00,30.2,28.7,00.0,39.0,32.1,10.5,0000.0,0002.29,0004.66,0001.64
2022-09-24 05:15:00,,0829.3,4.99,0.00,30.2,28.8,00.0,39.0,32.1,10.6,0000.0,0002.29,0004.73,0001.63
2022-09-24 05:16:00,,0829.3,5.00,0.00,30.2,28.8,00.0,39.0,32.1,10.6,0000.0,0002.30,0004.87,0001.63
2022-09-24 05:17:00,,0829.2,5.00,0.00,30.2,28.7,00.0,39.0,32.1,10.6,0000.0,0002.30,0005.47,0001.63
2022-09-24 05:18:00,,0829.3,4.99,0.00,30.2,28.7,00.0,39.0,32.1,10.6,0000.0,0002.25,0005.28,0001.62
2022-09-24 05:19:00,,0829.4,5.01,0.00,30.2,28.7,00.0,39.0,32.0,10.6,0000.0,0002.27,0005.84,0001.63
2022-09-24 05:20:00,,0829.3,5.00,0.00,30.2,28.7,00.0,39.0,32.0,10.8,0000.0,0002.26,0005.99,0001.63
2022-09-24 05:21:00,,0829.4,4.99,0.00,30.2,28.7,00.0,39.0,32.0,10.7,0000.0,0002.22,0005.76,0001.64
2022-09-24 05:22:00,,0829.4,5.00,0.00,30.2,28.7,00.0,39.0,32.0,10.7,0000.0,0002.22,0004.98,0001.64
2022-09-24 05:23:00,,0829.5,5.00,0.00,30.2,28.7,00.0,39.0,32.0,10.6,0000.0,0002.21,0004.73,0001.64
2022-09-24 05:24:00,,0829.5,4.99,0.00,30.2,28.7,00.0,39.0,32.0,10.6,0000.0,0002.27,0004.89,0001.64
2022-09-24 05:25:00,,0829.5,5.01,0.00,30.2,28.7,00.0,39.0,32.0,10.7,0000.0,0002.24,0004.86,0001.65
2022-09-24 05:26:00,,0829.5,4.99,0.00,30.2,28.6,00.0,39.0,32.0,10.7,0000.0,0002.24,0004.97,0001.66
2022-09-24 05:27:00,,0829.5,5.02,0.00,30.2,28.6,00.0,39.0,32.0,10.7,0000.0,0002.22,0004.83,0001.66
2022-09-24 05:28:00,,0829.5,4.99,0.00,30.2,28.7,00.0,39.0,32.0,10.7,0000.0,0002.21,0004.56,0001.65
2022-09-24 05:29:00,,0829.5,5.01,0.00,30.2,28.6,00.0,39.0,32.0,10.8,0000.0,0002.25,0004.86,0001.66
2022-09-24 05:30:00,,0829.5,4.99,0.00,30.2,28.7,00.0,39.0,32.0,10.7,0000.0,0002.22,0004.28,0001.68
2022-09-24 05:31:00,,0829.5,5.01,0.00,30.2,28.7,00.0,39.0,32.0,10.7,0000.0,0002.24,0004.18,0001.69
2022-09-24 05:32:00,,0829.5,4.99,0.00,30.2,28.7,00.0,39.0,32.0,10.7,0000.0,0002.35,0004.57,0001.71
2022-09-24 05:33:00,,0829.5,5.01,0.00,30.2,28.6,00.0,39.0,32.0,10.7,0000.0,0002.33,0004.56,0001.73
2022-09-24 05:34:00,,0829.5,5.00,0.00,30.1,28.6,00.0,39.0,32.0,10.7,0000.0,0002.36,0004.74,0001.73
2022-09-24 05:35:00,,0829.5,5.00,0.00,30.1,28.6,00.0,39.0,32.0,11.0,0000.0,0002.31,0004.60,0001.72
2022-09-24 05:36:00,,0829.5,5.00,0.00,30.1,28.6,00.0,39.0,32.0,11.0,0000.0,0002.33,0004.64,0001.72
2022-09-24 05:37:00,,0829.5,5.00,0.00,30.1,28.6,00.0,39.0,32.0,10.9,0000.0,0002.37,0004.66,0001.74
2022-09-24 05:38:00,,0829.5,5.00,0.00,30.1,28.6,00.0,39.0,32.0,10.9,0000.0,0002.40,0004.67,0001.74
2022-09-24 05:39:00,,0829.5,5.01,0.00,30.1,28.6,00.0,39.0,32.0,10.8,0000.0,0002.37,0004.27,0001.75
2022-09-24 05:40:00,,0829.5,4.99,0.00,30.1,28.6,00.0,39.0,32.0,10.9,0000.0,0002.33,0003.95,0001.74
2022-09-24 05:41:00,,0829.5,5.01,0.00,30.1,28.6,00.0,39.0,32.0,10.9,0000.0,0002.33,0003.96,0001.74
2022-09-24 05:42:00,,0829.5,4.99,0.00,30.1,28.6,00.0,39.0,32.0,10.9,0000.0,0002.33,0003.77,0001.73
2022-09-24 05:43:00,,0829.5,5.00,0.00,30.1,28.5,00.0,39.0,31.9,11.1,0000.0,0002.23,0003.43,0001.72
2022-09-24 05:44:00,,0829.5,4.99,0.00,30.1,28.5,00.0,39.0,31.9,11.0,0000.0,0002.22,0003.46,0001.72
2022-09-24 05:45:00,,0829.5,5.01,0.00,30.1,28.5,00.0,39.0,31.9,10.8,0000.0,0002.22,0003.52,0001.72
2022-09-24 05:46:00,,0829.5,4.99,0.00,30.1,28.6,00.0,39.0,31.9,10.7,0000.0,0002.25,0003.55,0001.72
2022-09-24 05:47:00,,0829.5,5.02,0.00,30.1,28.6,00.0,39.0,31.9,10.7,0000.0,0002.22,0003.51,0001.72
2022-09-24 05:48:00,,0829.6,4.99,0.00,30.1,28.6,00.0,39.0,31.9,10.7,0000.0,0002.18,0003.35,0001.71
2022-09-24 05:49:00,,0829.6,4.99,0.00,30.1,28.6,00.0,39.0,31.9,10.8,0000.0,0002.14,0003.67,0001.70
2022-09-24 05:50:00,,0829.6,5.01,0.00,30.1,28.7,00.0,39.0,32.0,10.7,0000.0,0002.15,0004.64,0001.70
2022-09-24 05:51:00,,0829.6,4.99,0.00,30.2,28.8,00.0,39.0,32.0,10.7,0000.0,0002.15,0004.64,0001.71
2022-09-24 05:52:00,,0829.6,4.99,0.00,30.2,28.8,00.0,39.0,32.0,10.8,0000.0,0002.11,0004.58,0001.69
2022-09-24 05:53:00,,0829.6,4.99,0.00,30.2,28.8,00.0,39.0,32.0,10.8,0000.0,0002.09,0004.65,0001.70
2022-09-24 05:54:00,,0829.6,5.00,0.00,30.2,28.8,00.0,39.0,32.0,10.7,0000.0,0002.11,0004.71,0001.70
2022-09-24 05:55:00,,0829.6,5.00,0.00,30.2,28.8,00.0,39.0,32.1,10.8,0000.0,0002.09,0004.75,0001.70
2022-09-24 05:56:00,,0829.6,5.00,0.00,30.2,28.8,00.0,39.0,32.1,10.6,0000.0,0002.06,0004.59,0001.70
2022-09-24 05:57:00,,0829.5,4.99,0.00,30.2,28.8,00.0,39.0,32.1,10.6,0000.0,0002.05,0005.04,0001.70
2022-09-24 05:58:00,,0829.6,5.01,0.00,30.3,28.9,00.0,39.0,32.1,10.6,0000.0,0002.05,0005.18,0001.71
2022-09-24 05:59:00,,0829.6,5.00,0.00,30.3,28.9,00.0,39.0,32.1,10.7,0000.0,0002.04,0005.15,0001.72
